Location: ????????
(55.0808°N, 38.5463°E)
Time: 18:22:34
(UTC+00:00)

Cosmos 2056 Rocket - Pass Details

Date: 14 April 2024
Orbit: 739 x 799 km, 74.0° (Epoch: 27 May)

Event Time Altitude Azimuth Distance (km) Brightness Sun altitude
Rises 00:31:39 0° 332° (NNW) 3,281 7.0 -14.7°
Reaches altitude 10° 00:34:03 10° 334° (NNW) 2,357 6.2 -14.4°
Maximum altitude 00:39:26 76° 61° (ENE) 824 3.8 -13.9°
Drops below altitude 10° 00:44:50 10° 147° (SSE) 2,367 6.0 -13.3°
Sets 00:47:14 0° 149° (SSE) 3,296 6.7 -13.0°
